| time (UTC) | temp F | wind direction | speed knots | gust knots | rain 1hr in | rain 24hr in | rain mn in | humidity % | barometer mb |
| 20260508031606 | 40 | 0 | 0.0 | 0.9 | 0.00 | 0.07 | 0.00 | 91 | 1011.7 |
| 20260508030104 | 40 | 0 | 0.0 | 0.9 | 0.00 | 0.07 | 0.00 | 92 | 1011.8 |
| 20260508024609 | 40 | 49 | 0.0 | 0.9 | 0.00 | 0.07 | 0.00 | 92 | 1012.0 |
| 20260508023059 | 40 | 0 | 0.0 | 0.0 | 0.00 | 0.07 | 0.00 | 92 | 1012.3 |
| 20260508021602 | 40 | 0 | 0.0 | 0.9 | 0.00 | 0.07 | 0.00 | 92 | 1012.4 |
| 20260508014601 | 41 | 0 | 0.0 | 0.9 | 0.00 | 0.07 | 0.00 | 92 | 1012.5 |
| 20260508013110 | 41 | 0 | 0.0 | 2.6 | 0.00 | 0.07 | 0.00 | 92 | 1012.8 |
| 20260508011600 | 41 | 0 | 0.0 | 0.9 | 0.00 | 0.07 | 0.00 | 91 | 1012.9 |
| 20260508010100 | 42 | 132 | 0.0 | 0.9 | 0.00 | 0.07 | 0.00 | 91 | 1013.1 |
| 20260508004604 | 42 | 129 | 0.0 | 0.0 | 0.00 | 0.07 | 0.00 | 91 | 1013.2 |
| 20260508003104 | 42 | 0 | 0.0 | 0.9 | 0.00 | 0.07 | 0.00 | 91 | 1013.3 |
| 20260508001600 | 43 | 0 | 0.0 | 0.0 | 0.00 | 0.07 | 0.00 | 90 | 1013.5 |
| 20260507234604 | 44 | 0 | 0.0 | 1.7 | 0.00 | 0.07 | 0.00 | 90 | 1013.7 |
| 20260507233117 | 44 | 0 | 0.0 | 1.7 | 0.00 | 0.07 | 0.00 | 89 | 1013.8 |
| 20260507231608 | 44 | 0 | 0.0 | 0.0 | 0.00 | 0.07 | 0.00 | 89 | 1013.9 |
| 20260507230100 | 44 | 222 | 0.0 | 2.6 | 0.00 | 0.07 | 0.00 | 89 | 1014.0 |
| 20260507224559 | 44 | 0 | 0.0 | 1.7 | 0.00 | 0.07 | 0.00 | 89 | 1014.0 |
| 20260507221600 | 45 | 0 | 0.0 | 0.9 | 0.00 | 0.07 | 0.00 | 88 | 1013.7 |
| 20260507220059 | 45 | 0 | 0.0 | 0.9 | 0.00 | 0.07 | 0.00 | 87 | 1013.8 |
| 20260507214603 | 45 | 120 | 0.0 | 0.9 | 0.00 | 0.07 | 0.07 | 87 | 1013.7 |
| 20260507213101 | 46 | 0 | 0.0 | 0.0 | 0.00 | 0.07 | 0.07 | 87 | 1013.5 |
| 20260507211604 | 46 | 184 | 0.0 | 0.9 | 0.00 | 0.07 | 0.07 | 86 | 1013.5 |
| 20260507210114 | 46 | 129 | 0.9 | 4.3 | 0.00 | 0.07 | 0.07 | 84 | 1013.5 |
| 20260507204600 | 47 | 0 | 0.9 | 5.2 | 0.00 | 0.07 | 0.07 | 84 | 1013.4 |
| 20260507203057 | 48 | 119 | 0.9 | 5.2 | 0.00 | 0.07 | 0.07 | 83 | 1013.1 |
| 20260507201600 | 48 | 116 | 1.7 | 4.3 | 0.00 | 0.07 | 0.07 | 84 | 1013.0 |
| 20260507200105 | 48 | 76 | 0.9 | 2.6 | 0.00 | 0.07 | 0.07 | 82 | 1012.7 |
| 20260507194601 | 49 | 63 | 0.0 | 6.1 | 0.00 | 0.07 | 0.07 | 80 | 1012.5 |
| 20260507193059 | 50 | 67 | 2.6 | 4.3 | 0.00 | 0.07 | 0.07 | 75 | 1012.4 |
| 20260507191603 | 51 | 110 | 0.0 | 1.7 | 0.00 | 0.07 | 0.07 | 73 | 1012.3 |
| 20260507190113 | 54 | 43 | 0.0 | 0.9 | 0.00 | 0.07 | 0.07 | 68 | 1012.2 |
| 20260507184558 | 55 | 270 | 0.0 | 2.6 | 0.00 | 0.07 | 0.07 | 67 | 1012.2 |
| 20260507183115 | 55 | 265 | 2.6 | 5.2 | 0.00 | 0.07 | 0.07 | 67 | 1012.3 |
| 20260507181606 | 55 | 267 | 1.7 | 3.5 | 0.00 | 0.07 | 0.07 | 66 | 1012.1 |
| 20260507180104 | 55 | 258 | 2.6 | 6.1 | 0.00 | 0.07 | 0.07 | 67 | 1012.1 |
| 20260507174605 | 55 | 229 | 1.7 | 4.3 | 0.00 | 0.07 | 0.07 | 68 | 1012.0 |
| 20260507173120 | 56 | 301 | 0.9 | 3.5 | 0.00 | 0.07 | 0.07 | 67 | 1012.1 |
| 20260507171600 | 55 | 278 | 0.9 | 4.3 | 0.00 | 0.07 | 0.07 | 70 | 1012.0 |
| 20260507170059 | 54 | 253 | 3.5 | 6.1 | 0.00 | 0.07 | 0.07 | 68 | 1012.1 |
| 20260507164631 | 54 | 248 | 3.5 | 7.8 | 0.00 | 0.07 | 0.07 | 70 | 1012.1 |
| 20260507163101 | 54 | 219 | 2.6 | 5.2 | 0.00 | 0.07 | 0.07 | 73 | 1012.1 |
| 20260507161605 | 54 | 260 | 0.9 | 3.5 | 0.00 | 0.07 | 0.07 | 69 | 1012.0 |
| 20260507154601 | 52 | 245 | 0.0 | 3.5 | 0.00 | 0.07 | 0.07 | 76 | 1011.7 |
| 20260507153059 | 50 | 255 | 0.9 | 5.2 | 0.03 | 0.07 | 0.07 | 80 | 1011.7 |
| 20260507151600 | 49 | 262 | 1.7 | 4.3 | 0.04 | 0.07 | 0.07 | 81 | 1011.8 |
| 20260507150059 | 48 | 243 | 0.9 | 3.5 | 0.04 | 0.07 | 0.07 | 86 | 1012.1 |
| 20260507144602 | 47 | 232 | 4.3 | 12.2 | 0.05 | 0.07 | 0.07 | 87 | 1012.4 |
| 20260507143119 | 48 | 248 | 7.0 | 19.1 | 0.02 | 0.03 | 0.03 | 84 | 1012.5 |
| 20260507141604 | 51 | 216 | 5.2 | 8.7 | 0.00 | 0.02 | 0.02 | 82 | 1012.4 |
| 20260507134559 | 51 | 266 | 2.6 | 6.1 | 0.00 | 0.01 | 0.01 | 81 | 1012.5 |
| 20260507133100 | 51 | 266 | 3.5 | 9.6 | 0.00 | 0.01 | 0.01 | 82 | 1012.3 |
| 20260507131606 | 51 | 247 | 6.1 | 10.4 | 0.01 | 0.01 | 0.01 | 81 | 1012.5 |
| 20260507130059 | 51 | 321 | 2.6 | 7.0 | 0.01 | 0.01 | 0.01 | 82 | 1012.4 |
| 20260507124606 | 50 | 237 | 3.5 | 9.6 | 0.01 | 0.01 | 0.01 | 82 | 1012.4 |
| 20260507123100 | 49 | 260 | 3.5 | 12.2 | 0.01 | 0.01 | 0.01 | 81 | 1012.3 |
| 20260507121558 | 51 | 291 | 9.6 | 16.5 | 0.00 | 0.00 | 0.00 | 77 | 1012.4 |
| 20260507120100 | 54 | 238 | 3.5 | 9.6 | 0.00 | 0.00 | 0.00 | 73 | 1012.2 |
| 20260507114611 | 56 | 237 | 2.6 | 7.8 | 0.00 | 0.00 | 0.00 | 66 | 1012.0 |
| 20260507113129 | 58 | 101 | 2.6 | 11.3 | 0.00 | 0.00 | 0.00 | 60 | 1012.1 |
| 20260507111600 | 58 | 198 | 2.6 | 8.7 | 0.00 | 0.00 | 0.00 | 62 | 1012.4 |
| 20260507110059 | 55 | 0 | 1.7 | 5.2 | 0.00 | 0.00 | 0.00 | 67 | 1012.6 |
| 20260507104558 | 55 | 268 | 1.7 | 2.6 | 0.00 | 0.00 | 0.00 | 68 | 1012.5 |
| 20260507103059 | 54 | 314 | 1.7 | 7.0 | 0.00 | 0.00 | 0.00 | 70 | 1012.8 |
| 20260507101603 | 53 | 63 | 1.7 | 7.0 | 0.00 | 0.00 | 0.00 | 70 | 1012.8 |
| 20260507100115 | 52 | 23 | 2.6 | 7.0 | 0.00 | 0.00 | 0.00 | 74 | 1012.9 |
| 20260507094607 | 51 | 54 | 1.7 | 4.3 | 0.00 | 0.00 | 0.00 | 75 | 1013.0 |
| 20260507093057 | 50 | 19 | 0.9 | 5.2 | 0.00 | 0.00 | 0.00 | 77 | 1013.0 |
| 20260507091635 | 50 | 77 | 2.6 | 5.2 | 0.00 | 0.00 | 0.00 | 77 | 1013.1 |
| 20260507090058 | 50 | 103 | 1.7 | 3.5 | 0.00 | 0.00 | 0.00 | 78 | 1012.8 |
| 20260507084610 | 50 | 63 | 1.7 | 3.5 | 0.00 | 0.00 | 0.00 | 82 | 1012.8 |
| 20260507083100 | 49 | 111 | 0.9 | 3.5 | 0.00 | 0.00 | 0.00 | 82 | 1012.7 |
| 20260507081602 | 49 | 86 | 1.7 | 3.5 | 0.00 | 0.00 | 0.00 | 80 | 1012.7 |
| 20260507080100 | 50 | 60 | 0.9 | 1.7 | 0.00 | 0.00 | 0.00 | 77 | 1012.7 |
| 20260507074604 | 49 | 0 | 0.0 | 3.5 | 0.00 | 0.00 | 0.00 | 78 | 1012.6 |
| 20260507073103 | 49 | 52 | 2.6 | 6.1 | 0.00 | 0.00 | 0.00 | 78 | 1012.4 |
| 20260507071559 | 49 | 13 | 0.9 | 7.8 | 0.00 | 0.00 | 0.00 | 80 | 1012.3 |
| 20260507070106 | 48 | 54 | 3.5 | 7.0 | 0.00 | 0.00 | 0.00 | 82 | 1012.3 |
| 20260507064559 | 46 | 61 | 3.5 | 6.1 | 0.00 | 0.00 | 0.00 | 86 | 1012.3 |
| 20260507063059 | 44 | 79 | 1.7 | 3.5 | 0.00 | 0.00 | 0.00 | 88 | 1012.1 |
| 20260507061600 | 44 | 75 | 1.7 | 3.5 | 0.00 | 0.00 | 0.00 | 89 | 1012.1 |
| 20260507060103 | 43 | 82 | 0.0 | 3.5 | 0.00 | 0.00 | 0.00 | 89 | 1012.1 |
| 20260507054559 | 43 | 65 | 1.7 | 4.3 | 0.00 | 0.00 | 0.00 | 89 | 1012.1 |
| 20260507053058 | 43 | 113 | 0.9 | 2.6 | 0.00 | 0.00 | 0.00 | 89 | 1012.1 |
| 20260507051602 | 43 | 0 | 0.0 | 1.7 | 0.00 | 0.00 | 0.00 | 89 | 1012.0 |
| 20260507050059 | 42 | 69 | 0.0 | 1.7 | 0.00 | 0.00 | 0.00 | 89 | 1012.1 |
| 20260507044616 | 42 | 0 | 0.0 | 0.9 | 0.00 | 0.00 | 0.00 | 89 | 1012.1 |
| 20260507041609 | 42 | 0 | 0.0 | 0.9 | 0.00 | 0.00 | 0.00 | 88 | 1012.4 |
| 20260507040059 | 42 | 0 | 0.0 | 0.9 | 0.00 | 0.00 | 0.00 | 89 | 1012.4 |
| 20260507034558 | 42 | 108 | 0.0 | 0.9 | 0.00 | 0.00 | 0.00 | 89 | 1012.4 |